Regional Weather Roundup
Issued by NWS

Home | Current Version | Previous Version | Graphics & Text | Print | Product List | Glossary On
Versions: 1 2 3 4 5 6 7 8 9 10 11 12 13 14 15 16 17 18 19 20 21 22 23 24 25 26 27 28 29 30 31 32 33 34 35 36 37 38 39 40 41 42 43 44 45 46 47 48 49 50
000
ASUS45 KBOU 240407
RWRCO

WEATHER ROUNDUP FOR COLORADO
NATIONAL WEATHER SERVICE DENVER/BOULDER CO
1000 PM MDT SAT MAY 23 2015

NOTE: "FAIR" INDICATES FEW OR NO CLOUDS BELOW 12000 FEET WITH NO
SIGNIFICANT WEATHER AND/OR OBSTRUCTIONS TO VISIBILITY.

COZ001>005-013-030-031-240500-
...NORTHWEST COLORADO...

CITY           SKY/WX    TMP DP  RH WIND       PRES   REMARKS
CRAIG          CLOUDY    42  37  82 SE3       30.00S
HAYDEN         CLOUDY    41  36  81 E9        30.01F
MEEKER         MOCLDY    43  37  79 MISG      30.01S
MOUNT WERNER   NOT AVBL
STEAMBOAT SPGS CLOUDY    39  36  87 CALM      30.02S
WALDEN         CLOUDY    36  32  87 SE5       30.06R
$$

COZ006>008-011-240500-
...WEST CENTRAL VALLEYS...

CITY           SKY/WX    TMP DP  RH WIND       PRES   REMARKS
GRAND JUNCTION CLOUDY    48  41  76 SE16      29.98R
MONTROSE       CLOUDY    45  42  89 NE5       30.04R
EAGLE          MOCLDY    45  37  76 E3        30.05S
RIFLE          PTCLDY    48  41  76 E6        30.00R
DELTA          LGT RAIN  48  45  90 MISG      30.03S
NUCLA          CLOUDY    45  41  87 NW3       30.06R
$$

COZ017>023-064>068-240500-
...SOUTHWEST COLORADO...

CITY           SKY/WX    TMP DP  RH WIND       PRES   REMARKS
DURANGO        MOCLDY    43  38  82 N6        30.05S
CORTEZ         CLOUDY    45  42  89 CALM      30.04R
PAGOSA SPRINGS CLOUDY    45  32  61 W10G17    30.08R
TELLURIDE      MOCLDY    36  32  85 SE5       30.09S
WOLF CREEK PAS NOT AVBL
$$

COZ009-010-012-014-032>034-037-058>063-240500-
...CENTRAL COLORADO...

CITY           SKY/WX    TMP DP  RH WIND       PRES   REMARKS
ASPEN          MOCLDY    37  33  85 SW5       30.04S
BUENA VISTA    MOCLDY    41  31  67 NW12      30.03S
COPPER MTN     PTCLDY    27  21  80 W8        30.15S WCI  18
BERTHOUD PASS  CLOUDY    21  14  73 NW13G24   30.16S WCI   9
COTTONWOOD PAS PTCLDY    39  27  60 W5        30.08F
GUNNISON       MOCLDY    43  30  61 SW6       30.06S
KREMMLING      CLOUDY    36  32  87 E5        30.08R
LEADVILLE      PTCLDY    29  27  92 N5        30.08F WCI  24
SALIDA         PTCLDY    43  33  66 SW10      30.09R
SUNLIGHT       MOCLDY    32  32 100 CALM      30.16R
WILKERSON PASS PTCLDY    30  21  69 W8G18     30.14S WCI  23
$$

COZ069>075-240500-
...SAN LUIS VALLEY/SANGRE DE CRISTO MOUNTAINS...

CITY           SKY/WX    TMP DP  RH WIND       PRES   REMARKS
ALAMOSA        PTCLDY    43  26  51 SW8       30.00F
LA VETA PASS   CLEAR    N/A N/A N/A MISG      30.08S
SAGUACHE       PTCLDY    45  32  61 CALM      30.02S
$$

COZ035-036-038>040-240500-
...NORTHERN COLORADO FRONT RANGE...

CITY           SKY/WX    TMP DP  RH WIND       PRES   REMARKS
DENVER INTL AP MOCLDY    45  41  86 CALM      29.94S
DMNS CITY PARK   N/A     45  43  93 SW3       29.96S
AURORA         PTCLDY    42  42  99 SW2       29.97S
FRONT RANGE AP NOT AVBL
ERIE MUNI ARPT MOCLDY    49  45  87 E3        29.95F
BOULDER MUN AP MOCLDY    46  45  93 W3        29.96S
CENTENNIAL     PTCLDY    45  41  86 W3        29.96F
BROOMFIELD     PTCLDY    46  43  87 NW6       29.97S
FORT COLLINS   MOCLDY    50  43  76 SW9       29.97F THUNDER
LONGMONT       MOCLDY    51  45  81 N7        29.96F
$$

COZ041-046-047-076>085-087-088-240500-
...PIKES PEAK/PALMER DIVIDE AND SOUTHERN FOOTHILLS...

CITY           SKY/WX    TMP DP  RH WIND       PRES   REMARKS
COLO. SPRINGS  MOCLDY    48  42  80 N10       29.96R
A. F. ACADEMY  PTCLDY    46  38  76 N13       29.97R
ELLICOTT       NOT AVBL
FALCON         PTCLDY    45  36  71 N7        29.98R
FORT CARSON    MOCLDY    51  44  77 E3        29.93R
LIMON          MOCLDY    46  43  89 N10       29.93F
MONUMENT HILL  NOT AVBL
TRINIDAD       MOCLDY    51  46  83 E6        29.92R
$$

COZ042>045-048>051-090-091-240500-
...NORTHEAST COLORADO...

CITY           SKY/WX    TMP DP  RH WIND       PRES   REMARKS
GREELEY ARPT   MOCLDY    50  46  87 S5        29.96S
AKRON          PTCLDY    46  46 100 NE7       29.93R
BURLINGTON     CLOUDY    50  48  93 E5        29.89R
WRAY           CLOUDY   N/A N/A N/A NE7       29.91R
STERLING       PTCLDY    50  50 100 N5        29.91R
HOLYOKE        NOT AVBL
FORT MORGAN    PTCLDY    48  46  93 CALM      29.94F
$$

COZ086-089-092>099-240500-
...SOUTHEAST COLORADO...

CITY           SKY/WX    TMP DP  RH WIND       PRES   REMARKS
PUEBLO         PTCLDY    53  49  86 E6        29.88F
LA JUNTA       CLOUDY    54  50  86 N15       29.83S
LAMAR          CLOUDY    57  55  93 E12       29.85R
SPRINGFIELD      N/A     56  55  97 S17       29.86R
$$



USA.gov is the U.S. government's official web portal to all federal, state and local government web resources and services.